Location: Springfield
(37.2150°N, 93.2980°W)
Time: 08:03:01
(UTC-06:00)

Daily predictions for brighter satellites

Satellite Brightness Start Highest point End
(mag) Time Altitude Azimuth Time Altitude Azimuth Time Altitude Azimuth
Tsikada Rocket 4.0 17:15:24 10° N 17:21:31 62° E 17:27:36 10° SSE
Cosmos 2016 Rocket 4.5 17:16:55 10° SSW 17:23:14 70° W 17:29:30 10° N
Cosmos 1484 Rocket 3.0 17:21:20 10° SSE 17:24:59 46° ENE 17:28:44 10° N
Meteor 1-28 Rocket 3.7 17:21:44 10° NNE 17:25:12 37° E 17:28:39 10° SSE
Meteor 2-12 Rocket 4.4 17:19:41 10° S 17:25:45 76° E 17:31:49 10° N
CZ-2C R/B 4.2 17:22:39 10° NNE 17:26:53 40° E 17:31:09 10° S
Cosmos 1437 2.6 17:23:52 10° S 17:27:00 70° E 17:30:10 10° NNE
Cosmos 1606 4.2 17:24:49 10° SE 17:27:22 17° E 17:29:55 10° NE
IRAS Rocket 4.3 17:22:17 10° SSE 17:27:50 87° ENE 17:33:23 10° NNW
SJ-12 4.2 17:24:10 10° S 17:28:18 76° WSW 17:32:28 10° NNW
Landsat 4 4.3 17:32:35 10° NNE 17:36:07 37° E 17:39:40 10° SSE
CENTAUR R/B 3.5 17:32:45 10° WSW 17:38:29 45° NW 17:44:59 10° NNE
Cosmos 1703 Rocket 4.2 17:36:50 10° SSE 17:40:52 34° E 17:44:54 10° NNE
ERBS 2.5 17:38:50 10° NNW 17:42:08 48° NE 17:45:27 10° ESE
Cosmos 1782 3.7 17:40:16 10° SSE 17:43:44 28° E 17:47:12 10° NNE
Meteor 1-25 Rocket 4.5 17:40:31 10° N 17:46:11 49° ENE 17:51:46 10° SSE
CSL-04 Rocket 3.8 17:41:18 10° S 17:46:34 78° WSW 17:51:55 10° NNW
Cosmos 2082 Rocket 3.2 17:43:18 10° N 17:47:49 24° ENE 17:52:16 10° ESE
Meteor 1-20 Rocket 4.4 17:42:57 10° N 17:48:17 45° ENE 17:53:29 10° SSE
Cosmos 468 Rocket 4.3 17:45:24 10° NNW 17:50:33 71° WSW 17:55:38 10° S
Okean 2 Rocket 4.4 17:50:38 10° NNE 17:53:55 19° ENE 17:57:10 10° ESE
ALOS 3.2 17:50:39 10° SE 17:54:27 25° ENE 17:58:15 10° NNE
GENESIS II 4.1 17:50:59 10° NNW 17:54:55 83° ENE 17:58:48 10° SSE
Cosmos 1464 Rocket 4.4 17:50:59 10° SSE 17:56:32 38° E 18:02:08 10° NNE
METEOR-M 4.3 17:51:44 10° SE 17:56:50 49° ENE 18:01:57 10° N
Cosmos 405 Rocket 4.0 17:55:37 10° SE 17:58:21 19° E 17:58:57 18° ENE
BREEZE-M DEB (TANK) 3.1 17:49:46 10° WNW 17:58:37 82° SSW 18:01:57 10° SE
SMAP 3.6 17:58:56 10° S 18:03:32 63° W 18:08:09 10° NNW
ERS-2 2.2 18:00:40 10° SSE 18:04:13 51° ENE 18:07:49 10° N
Cosmos 1908 Rocket 3.4 18:04:09 10° N 18:08:30 78° E 18:12:48 10° S
SKYMED 2 3.5 18:04:39 10° NNE 18:08:58 63° E 18:13:15 10° S
Cosmos 1763 Rocket 3.5 18:05:23 10° NNW 18:10:36 82° WSW 18:15:43 10° SSE
Cosmos 2233 Rocket 4.5 18:05:37 10° SSW 18:11:49 65° W 18:18:01 10° N
Meteor 1-10 Rocket 4.3 18:08:32 10° S 18:14:00 55° E 18:19:37 10° NNE
Cosmos 972 4.4 18:14:32 10° NNW 18:19:33 82° WSW 18:24:24 10° S
Sich 1 Rocket 3.5 18:16:22 10° N 18:20:49 88° E 18:25:16 10° S
BREEZE-M R/B 3.0 18:18:33 10° NW 18:21:24 45° NE 18:22:51 31° E
SL-27 R/B 2.1 18:19:44 10° NNW 18:23:04 69° ENE 18:26:24 10° SSE
IUS-13 SRM-1 4.2 18:26:03 10° S 18:26:36 10° SSE 18:26:55 10° SSE
Cosmos 1503 Rocket 3.9 18:22:49 10° SSW 18:28:05 80° ESE 18:32:49 13° NNE
CZ-4C R/B 3.7 18:28:02 10° NNW 18:34:12 30° NE 18:35:39 28° ENE
FENGYUN 3A 3.6 18:29:12 10° SSE 18:34:32 66° ENE 18:39:54 10° N
Cosmos 968 Rocket 4.0 18:32:27 10° SSE 18:37:07 36° E 18:37:11 36° E
Okean 1-7 3.2 18:33:31 10° SSW 18:37:52 74° W 18:42:16 10° N
Cosmos 1513 Rocket 4.4 18:33:30 10° S 18:39:49 78° E 18:46:04 10° N
Cosmos 540 Rocket 3.3 18:34:49 10° NNW 18:39:59 69° ENE 18:45:06 10° SSE
Cosmos 1633 2.9 18:36:31 10° NNW 18:40:10 64° W 18:43:47 10° S
CZ-4 R/B 3.7 18:38:58 10° SSW 18:42:11 25° W 18:45:23 10° NW
DMSP B5D1-3 4.4 18:37:59 10° NNE 18:43:10 84° ESE 18:48:19 10° SSW
Cosmos 2297 3.7 18:38:28 10° SSW 18:44:10 82° WNW 18:48:34 18° NNE
Cosmos 836 Rocket 4.4 18:39:01 10° NNW 18:44:16 73° ENE 18:49:32 10° SSE
USA 234 3.4 18:39:52 22° NE 18:44:21 73° NW 18:50:51 10° SW
Cosmos 841 Rocket 4.3 18:40:06 10° NNW 18:45:13 52° WSW 18:50:17 10° S
Cosmos 1833 Rocket 2.5 18:40:32 10° NNW 18:46:10 71° ENE 18:51:45 10° SSE
Meteor 1-11 Rocket 3.8 18:40:51 10° N 18:46:33 51° ENE 18:52:05 10° SSE
Cosmos 2278 Rocket 3.9 18:45:18 10° WSW 18:50:13 30° WNW 18:55:11 10° N
GPS 2-05 Rocket1 4.2 18:47:31 10° SW 18:49:39 28° SSW 18:49:39 28° SSW
Cosmos 1891 Rocket 4.4 18:46:12 10° S 18:52:24 85° W 18:58:31 10° N
Cosmos 1782 Rocket 4.2 18:48:36 10° NNW 18:52:52 56° W 18:57:07 10° S
Cosmos 44 Rocket 4.1 18:48:37 10° NNW 18:51:58 34° NNE 18:51:58 34° NNE
COSMO-SKYMED 1 4.1 18:53:00 10° N 18:56:57 35° WNW 19:00:53 10° SW
Cosmos 1441 Rocket 3.5 18:58:11 10° SSW 19:01:41 66° SW 19:01:41 66° SW
SPOT 3 Rocket 4.2 18:58:32 10° S 19:03:38 55° W 19:08:45 10° NNW
OAO 3 Rocket 4.0 19:00:27 10° SW 19:04:51 40° SSE 19:04:51 40° SSE
Cosmos 292 Rocket 4.2 19:01:33 10° NNW 19:05:03 49° N 19:05:03 49° N
Cosmos 2034 Rocket 4.3 19:06:28 10° SSW 19:12:48 69° W 19:19:10 10° N
Nadezhda 4 Rocket 3.8 19:07:20 10° N 19:13:29 79° E 19:19:35 10° S
Timation 2 Rocket 4.5 19:08:57 10° NNW 19:14:18 46° NNE 19:14:18 46° NNE
MOS 1-B Rocket 4.4 19:13:23 10° SSE 19:20:22 74° ENE 19:28:37 10° N
Cosmos 44 4.4 19:21:02 10° NNW 19:23:45 35° NNW 19:23:45 35° NNW
USA 229 DEB 3.9 19:24:43 10° SSW 19:30:03 54° SSE 19:30:03 54° SSE
USA 229 3.9 19:24:50 10° SSW 19:30:06 52° SSE 19:30:06 52° SSE
ALOS 4.2 19:27:43 10° SSW 19:31:44 28° W 19:35:47 10° NW
Cosmos 2082 Rocket 3.1 19:26:42 10° NW 19:32:06 46° WSW 19:37:27 10° S
Thor Agena Rocket 4.2 19:39:42 51° W 19:39:42 51° W 19:44:23 10° SSW
CZ-4C R/B 3.7 20:15:58 10° NW 20:20:54 46° NW 20:20:54 46° NW
